This is the latest recevied weather packets stored in our database for station/object KC5TIL-3. If no packets are shown the sender has not sent any weather packets the latest 10 day(s).
| Time | Temp. | Humidity | Pressure | Rain* | Wind** | Luminosity | Snow |
|---|---|---|---|---|---|---|---|
| 1777877050 | 18.89° C | 25% | 1012.8 hPa | 0 mm | 3.13 m/s, 165° | - | - |
| 1777876748 | 18.89° C | 25% | 1012.8 hPa | 0 mm | 3.58 m/s, 218° | - | - |
| 1777876450 | 18.89° C | 25% | 1012.8 hPa | 0 mm | 3.13 m/s, 195° | - | - |
| 1777876153 | 18.89° C | 25% | 1012.8 hPa | 0 mm | 3.13 m/s, 196° | - | - |
| 1777875851 | 18.89° C | 25% | 1012.8 hPa | 0 mm | 2.68 m/s, 184° | - | - |
| 1777875552 | 18.89° C | 25% | 1012.8 hPa | 0 mm | 3.58 m/s, 131° | - | - |
| 1777875254 | 18.89° C | 25% | 1012.8 hPa | 0 mm | 2.68 m/s, 140° | - | - |
| 1777874953 | 18.89° C | 25% | 1012.8 hPa | 0 mm | 1.79 m/s, 196° | - | - |
| 1777874347 | 19.44° C | 24% | 1012.8 hPa | 0 mm | 2.24 m/s, 217° | - | - |
| 1777874046 | 19.44° C | 24% | 1012.8 hPa | 0 mm | 3.13 m/s, 225° | - | - |
| 1777873748 | 19.44° C | 24% | 1012.8 hPa | 0 mm | 2.24 m/s, 149° | - | - |
| 1777873449 | 19.44° C | 24% | 1012.8 hPa | 0 mm | 1.79 m/s, 139° | - | - |
| 1777873148 | 19.44° C | 23% | 1012.8 hPa | 0 mm | 1.79 m/s, 135° | - | - |
| 1777872850 | 19.44° C | 23% | 1012.8 hPa | 0 mm | 2.24 m/s, 224° | - | - |
| 1777872552 | 19.44° C | 23% | 1012.8 hPa | 0 mm | 2.24 m/s, 144° | - | - |
| 1777872250 | 19.44° C | 23% | 1012.8 hPa | 0 mm | 2.68 m/s, 225° | - | - |
| 1777871953 | 19.44° C | 23% | 1012.8 hPa | 0 mm | 1.79 m/s, 223° | - | - |
| 1777871649 | 20° C | 23% | 1012.8 hPa | 0 mm | 2.24 m/s, 159° | - | - |
| 1777871347 | 20° C | 23% | 1012.8 hPa | 0 mm | 2.68 m/s, 204° | - | - |
| 1777870751 | 20° C | 23% | 1012.8 hPa | 0 mm | 2.24 m/s, 222° | - | - |
| 1777870450 | 20° C | 22% | 1012.8 hPa | 0 mm | 3.58 m/s, 194° | - | - |
| 1777870152 | 20° C | 22% | 1013.8 hPa | 0 mm | 3.13 m/s, 245° | - | - |
| 1777869853 | 20° C | 22% | 1013.8 hPa | 0 mm | 2.68 m/s, 177° | - | - |
| 1777869553 | 20.56° C | 22% | 1013.8 hPa | 0 mm | 3.13 m/s, 205° | - | - |
| 1777868654 | 20.56° C | 22% | 1013.8 hPa | 0 mm | 2.68 m/s, 222° | - | - |
* Rain latest hour (hover to see other rain measurements)
** Current wind speed in m/s (hover to see current wind gust speed)